TimeEDT,TemperatureF,Dew PointF,Humidity,Sea Level PressureIn,VisibilityMPH,Wind Direction,Wind SpeedMPH,Gust SpeedMPH,PrecipitationIn,Events,Conditions,WindDirDegrees,DateUTC
12:15 AM,53.6,37.4,54,29.70,10.0,WNW,9.2,16.1,N/A,,Clear,290,2013-03-25 04:15:00
12:35 AM,53.6,37.4,54,29.70,10.0,WNW,12.7,26.5,N/A,,Clear,300,2013-03-25 04:35:00
12:55 AM,51.8,37.4,58,29.71,10.0,West,6.9,-,N/A,,Clear,280,2013-03-25 04:55:00
1:15 AM,51.8,35.6,54,29.71,10.0,WNW,13.8,23.0,N/A,,Clear,300,2013-03-25 05:15:00
1:35 AM,51.8,35.6,54,29.72,10.0,WNW,13.8,21.9,N/A,,Clear,290,2013-03-25 05:35:00
1:55 AM,50.0,33.8,54,29.73,10.0,WNW,13.8,19.6,N/A,,Clear,290,2013-03-25 05:55:00
2:15 AM,50.0,32.0,50,29.75,10.0,WNW,9.2,20.7,N/A,,Clear,300,2013-03-25 06:15:00
2:35 AM,48.2,32.0,54,29.75,10.0,WNW,12.7,25.3,N/A,,Clear,290,2013-03-25 06:35:00
2:55 AM,46.4,32.0,57,29.77,10.0,WNW,15.0,27.6,N/A,,Clear,290,2013-03-25 06:55:00
3:15 AM,44.6,30.2,57,29.78,10.0,WNW,13.8,21.9,N/A,,Clear,300,2013-03-25 07:15:00
3:55 AM,42.8,30.2,61,29.78,10.0,West,11.5,18.4,N/A,,Clear,280,2013-03-25 07:55:00
4:15 AM,42.8,30.2,61,29.79,10.0,West,15.0,21.9,N/A,,Scattered Clouds,280,2013-03-25 08:15:00
4:35 AM,42.8,28.4,57,29.80,10.0,West,15.0,19.6,N/A,,Scattered Clouds,280,2013-03-25 08:35:00
4:55 AM,42.8,28.4,57,29.80,10.0,WNW,9.2,-,N/A,,Clear,290,2013-03-25 08:55:00
5:15 AM,42.8,28.4,57,29.80,10.0,WNW,12.7,17.3,N/A,,Mostly Cloudy,290,2013-03-25 09:15:00
5:35 AM,42.8,28.4,57,29.81,10.0,WNW,11.5,17.3,N/A,,Mostly Cloudy,300,2013-03-25 09:35:00
5:55 AM,42.8,28.4,57,29.81,10.0,WNW,8.1,-,N/A,,Overcast,290,2013-03-25 09:55:00
6:15 AM,42.8,30.2,61,29.81,10.0,WNW,9.2,18.4,N/A,,Overcast,300,2013-03-25 10:15:00
6:35 AM,42.8,28.4,57,29.82,10.0,WNW,10.4,16.1,N/A,,Overcast,300,2013-03-25 10:35:00
6:55 AM,42.8,28.4,57,29.83,10.0,WNW,10.4,-,N/A,,Overcast,290,2013-03-25 10:55:00
7:15 AM,42.8,28.4,57,29.83,10.0,WNW,13.8,23.0,N/A,,Mostly Cloudy,290,2013-03-25 11:15:00
7:35 AM,42.8,26.6,53,29.84,10.0,WNW,12.7,25.3,N/A,,Scattered Clouds,300,2013-03-25 11:35:00
7:55 AM,42.8,26.6,53,29.85,10.0,WNW,12.7,16.1,N/A,,Mostly Cloudy,290,2013-03-25 11:55:00
8:15 AM,42.8,26.6,53,29.85,10.0,WNW,6.9,-,N/A,,Overcast,290,2013-03-25 12:15:00
8:35 AM,42.8,28.4,57,29.86,10.0,WNW,9.2,-,N/A,,Overcast,290,2013-03-25 12:35:00
8:55 AM,42.8,30.2,61,29.86,10.0,West,9.2,-,N/A,,Mostly Cloudy,260,2013-03-25 12:55:00
9:15 AM,44.6,30.2,57,29.87,10.0,West,15.0,-,N/A,,Mostly Cloudy,270,2013-03-25 13:15:00
9:35 AM,44.6,26.6,49,29.88,10.0,WNW,16.1,21.9,N/A,,Scattered Clouds,300,2013-03-25 13:35:00
9:55 AM,44.6,26.6,49,29.88,10.0,West,17.3,23.0,N/A,,Scattered Clouds,280,2013-03-25 13:55:00
10:15 AM,46.4,28.4,50,29.89,10.0,WNW,20.7,26.5,N/A,,Scattered Clouds,290,2013-03-25 14:15:00
10:35 AM,46.4,26.6,46,29.90,10.0,West,20.7,25.3,N/A,,Clear,270,2013-03-25 14:35:00
10:55 AM,46.4,26.6,46,29.90,10.0,West,17.3,24.2,N/A,,Clear,280,2013-03-25 14:55:00
11:15 AM,48.2,28.4,46,29.91,10.0,WNW,16.1,23.0,N/A,,Clear,290,2013-03-25 15:15:00
11:35 AM,48.2,28.4,46,29.91,10.0,West,11.5,23.0,N/A,,Scattered Clouds,280,2013-03-25 15:35:00
11:55 AM,50.0,28.4,43,29.91,10.0,West,15.0,26.5,N/A,,Scattered Clouds,270,2013-03-25 15:55:00
12:15 PM,50.0,28.4,43,29.91,10.0,West,16.1,32.2,N/A,,Scattered Clouds,280,2013-03-25 16:15:00
12:35 PM,50.0,26.6,40,29.91,10.0,West,12.7,19.6,N/A,,Clear,280,2013-03-25 16:35:00
12:55 PM,51.8,23.0,33,29.91,10.0,WNW,15.0,24.2,N/A,,Clear,300,2013-03-25 16:55:00
1:15 PM,51.8,24.8,35,29.90,10.0,West,15.0,24.2,N/A,,Clear,280,2013-03-25 17:15:00
1:35 PM,51.8,21.2,30,29.90,10.0,West,12.7,26.5,N/A,,Clear,280,2013-03-25 17:35:00
1:55 PM,53.6,21.2,28,29.89,10.0,WNW,16.1,29.9,N/A,,Clear,300,2013-03-25 17:55:00
2:15 PM,53.6,19.4,26,29.89,10.0,WNW,18.4,27.6,N/A,,Clear,290,2013-03-25 18:15:00
2:35 PM,53.6,19.4,26,29.88,10.0,WNW,17.3,26.5,N/A,,Clear,290,2013-03-25 18:35:00
2:55 PM,55.4,19.4,25,29.88,10.0,WNW,18.4,28.8,N/A,,Scattered Clouds,290,2013-03-25 18:55:00
3:15 PM,55.4,12.2,18,29.88,10.0,NW,25.3,34.5,N/A,,Clear,310,2013-03-25 19:15:00
3:35 PM,55.4,12.2,18,29.88,10.0,NW,21.9,28.8,N/A,,Clear,320,2013-03-25 19:35:00
3:55 PM,55.4,15.8,21,29.88,10.0,NW,18.4,28.8,N/A,,Clear,310,2013-03-25 19:55:00
4:15 PM,55.4,17.6,23,29.87,10.0,WNW,15.0,25.3,N/A,,Clear,300,2013-03-25 20:15:00
4:35 PM,55.4,14.0,20,29.88,10.0,WNW,17.3,29.9,N/A,,Clear,300,2013-03-25 20:35:00
4:55 PM,55.4,14.0,20,29.88,10.0,WNW,15.0,26.5,N/A,,Clear,300,2013-03-25 20:55:00
5:15 PM,53.6,12.2,19,29.89,10.0,WNW,23.0,33.4,N/A,,Clear,300,2013-03-25 21:15:00
5:35 PM,53.6,12.2,19,29.90,10.0,WNW,18.4,29.9,N/A,,Clear,300,2013-03-25 21:35:00
5:55 PM,53.6,14.0,21,29.91,10.0,NW,18.4,26.5,N/A,,Clear,310,2013-03-25 21:55:00
6:15 PM,53.6,14.0,21,29.91,10.0,WNW,15.0,28.8,N/A,,Clear,290,2013-03-25 22:15:00
6:35 PM,53.6,15.8,22,29.91,10.0,NW,13.8,24.2,N/A,,Clear,310,2013-03-25 22:35:00
6:55 PM,51.8,17.6,26,29.92,10.0,NW,9.2,19.6,N/A,,Clear,310,2013-03-25 22:55:00
7:15 PM,51.8,17.6,26,29.93,10.0,NW,19.6,26.5,N/A,,Clear,320,2013-03-25 23:15:00
7:35 PM,50.0,17.6,28,29.94,10.0,NW,10.4,23.0,N/A,,Clear,320,2013-03-25 23:35:00
7:55 PM,50.0,17.6,28,29.96,10.0,NW,12.7,19.6,N/A,,Clear,310,2013-03-25 23:55:00
8:15 PM,48.2,17.6,30,29.97,10.0,NW,10.4,17.3,N/A,,Clear,320,2013-03-26 00:15:00
8:35 PM,46.4,17.6,32,29.99,10.0,NW,10.4,-,N/A,,Clear,320,2013-03-26 00:35:00
8:55 PM,46.4,19.4,34,30.00,10.0,NNW,11.5,16.1,N/A,,Clear,330,2013-03-26 00:55:00
9:15 PM,44.6,19.4,37,30.01,10.0,NW,12.7,17.3,N/A,,Clear,320,2013-03-26 01:15:00
9:35 PM,44.6,19.4,37,30.03,10.0,NNW,8.1,17.3,N/A,,Clear,330,2013-03-26 01:35:00
9:55 PM,44.6,19.4,37,30.04,10.0,NNW,9.2,-,N/A,,Clear,340,2013-03-26 01:55:00
10:15 PM,42.8,19.4,39,30.05,10.0,NW,12.7,16.1,N/A,,Clear,320,2013-03-26 02:15:00
10:35 PM,42.8,19.4,39,30.06,10.0,North,8.1,-,N/A,,Clear,350,2013-03-26 02:35:00
10:55 PM,41.0,21.2,45,30.07,10.0,NNW,10.4,-,N/A,,Clear,330,2013-03-26 02:55:00
11:15 PM,41.0,21.2,45,30.08,10.0,NNW,5.8,-,N/A,,Clear,330,2013-03-26 03:15:00
11:35 PM,39.2,23.0,52,30.09,10.0,NNW,6.9,-,N/A,,Clear,330,2013-03-26 03:35:00
11:55 PM,37.4,23.0,56,30.09,10.0,NW,4.6,-,N/A,,Clear,320,2013-03-26 03:55:00